Simultaneous Nadir Overpasses (SNOs) Predictions

Prediction of SNOs between FY3D and NOAA-19 Satellite Orbit:

Table of predicted SNOs for the next 14.0 days since TLE Epoch: 3/20/2021
Index Date (FY3D) Time (FY3D) Lat,Lon (FY3D) SZA (FY3D ) Date (NOAA-19) Time (NOAA-19) Lat,Lon (NOAA-19) SZA (NOAA-19 ) Distance(km) Time Diff (sec)
1 03/29/2021 06:38:30 -78.67,-125.83 103.58 03/29/2021 06:37:20 -78.69,-125.70 103.55 3.25 70
2 03/29/2021 07:29:14 78.67, 41.54 76.40 03/29/2021 07:28:15 78.66, 41.38 76.43 3.45 59
3 03/29/2021 08:19:59 -78.67,-151.21 103.60 03/29/2021 08:19:21 -78.67,-151.34 103.58 3.07 38
4 03/29/2021 09:10:44 78.70, 15.92 76.43 03/29/2021 09:10:15 78.67, 15.98 76.41 3.65 29
5 03/29/2021 10:01:28 -78.68,-176.58 103.63 03/29/2021 10:01:21 -78.68,-176.74 103.61 3.47 7
6 03/29/2021 10:52:13 78.71, -9.45 76.40 03/29/2021 10:52:15 78.69, -9.41 76.38 2.12 2
7 03/29/2021 11:42:58 -78.71, 157.80 103.60 03/29/2021 11:43:21 -78.69, 157.86 103.63 2.48 23
8 03/29/2021 12:33:42 78.71, -34.83 76.38 03/29/2021 12:34:15 78.70, -34.81 76.36 0.62 33
9 03/29/2021 13:24:27 -78.71, 132.43 103.63 03/29/2021 13:25:21 -78.71, 132.46 103.66 1.03 54
10 03/29/2021 14:15:11 78.71, -60.21 76.35 03/29/2021 14:16:15 78.72, -60.21 76.33 0.95 64



Historial Predications of SNOs between FY3D and NOAA-19
